Regional Weather Roundup
Issued by NWS Charleston, WV

Home | Current Version | Previous Version | Text Only | Print | Product List | Glossary On
Versions: 1 2 3 4 5 6 7 8 9 10 11 12 13 14 15 16 17 18 19 20 21 22 23 24 25 26 27 28 29 30 31 32 33 34 35 36 37 38 39 40 41 42 43 44 45 46 47 48 49 50
000
ASUS41 KRLX 080710
RWRRLX
West Virginia Regional Weather Roundup
National Weather Service Charleston WV
200 AM EST THU DEC 08 2016

Note: "fair" indicates few or no clouds below 12,000 feet with no
significant weather and/or obstructions to visibility.

WVZ003-080800-
Northern Panhandle of West Virginia

CITY           SKY/WX    TMP DP  RH WIND       PRES   REMARKS
WHEELING       CLOUDY    32  22  66 W9        30.06S
$$

WVZ009-080800-
Northwest West Virginia

CITY           SKY/WX    TMP DP  RH WIND       PRES   REMARKS
PARKERSBURG    CLOUDY    36  22  56 W7        30.14S
$$

WVZ006-080800-
Western West Virginia

CITY           SKY/WX    TMP DP  RH WIND       PRES   REMARKS
HUNTINGTON     CLOUDY    37  23  56 W7        30.14R
$$

WVZ015-080800-
West Central West Virginia

CITY           SKY/WX    TMP DP  RH WIND       PRES   REMARKS
CHARLESTON     CLOUDY    33  30  88 SW5       30.12R
$$

WVZ022-031-080800-
North Central West Virginia

CITY           SKY/WX    TMP DP  RH WIND       PRES   REMARKS
CLARKSBURG     CLOUDY    33  26  75 CALM      30.08R
MORGANTOWN     CLOUDY    35  23  61 SW5       30.08R
$$

WVZ025-035-042-045-080800-
Southern West Virginia

CITY           SKY/WX    TMP DP  RH WIND       PRES   REMARKS
BECKLEY        CLOUDY    29  23  78 W3        30.06R
LOGAN          CLOUDY    34  27  75 CALM      30.11R
BLUEFIELD      PTCLDY    30  25  81 SW5       30.05S
LEWISBURG      CLOUDY    29  24  81 CALM      30.04S
$$

WVZ047-080800-
Northern Mountains of West Virginia

CITY           SKY/WX    TMP DP  RH WIND       PRES   REMARKS
ELKINS         CLOUDY    27  23  85 CALM      30.06S
$$

WVZ052-080800-
Eastern Panhandle of West Virginia

CITY           SKY/WX    TMP DP  RH WIND       PRES   REMARKS
MARTINSBURG    CLOUDY    30  24  78 CALM      30.04F
PETERSBURG     CLOUDY    28  26  93 CALM      30.06S
$$




USA.gov is the U.S. government's official web portal to all federal, state and local government web resources and services.